Location: Namasale
(1.5000°N, 32.6167°E)
Time: 21:14:03
(UTC+00:00)

H-2A R/B - Pass Details

Date: 09 April 2020
Orbit: 734 x 836 km, 98.2° (Epoch: 02 June)

Event Time Altitude Azimuth Distance (km) Brightness Sun altitude
Exits shadow 18:13:12 28° 327° (NNW) 1,463 3.7 -34.9°
Drops below altitude 10° 18:15:40 10° 337° (NNW) 2,358 4.8 -35.5°
Sets 18:18:00 0° 341° (NNW) 3,270 5.6 -36.1°
